Date String (YYYY-MM-DD hh:mm:ss) UTC,Instrument flags,absolute air pressure of the measurement (hPa),sample flow rate (lpm),inlet stack bypass flow (lpm),air temperature of the measurement (°C),ambient temperature measured by the external sensor (°C),aerosol sample conditioner tube jacket temperature (°C),OPC LED temperature (°C),internal box temperature (°C),relative humidity of the measurement (%),span deviation,mass concentration of particles derived from Lorenz-Mie calculation of OPC scattering (μg/m³),mass concentration of particles derived from Lorenz-Mie calculation of OPC scattering (μg/m³),mass concentration of particles derived from Lorenz-Mie calculation of OPC scattering (μg/m³)
DateTimeUTC,F1_M11,P_M11,Q1_M11,Q2_M11,T1_M11,T2_M11,T3_M11,T4_M11,T5_M11,U1_M11,ZSPAN_M11,X0_M11,X2_M11,X1_M11
2024-01-27 09:00:00,SystemResetWarning,0836.6,4.99,000.00,020.0,018.8,000.0,028.4,021.3,13.1,0000.0,0002.81,0002.61,0002.50
2024-01-27 09:01:00,SystemResetWarning,0836.6,5.01,000.00,020.0,018.8,000.0,028.4,021.3,13.2,0000.0,0002.85,0002.62,0002.50
2024-01-27 09:02:00,SystemResetWarning,0836.6,5.01,000.00,020.0,018.8,000.0,028.4,021.3,13.1,0000.0,0002.85,0002.61,0002.49
2024-01-27 09:03:00,SystemResetWarning,0836.6,5.00,000.00,020.0,018.8,000.0,028.4,021.3,13.0,0000.0,0002.81,0002.60,0002.49
2024-01-27 09:04:00,SystemResetWarning,0836.6,5.00,000.00,020.0,018.8,000.0,028.4,021.3,13.0,0000.0,0002.81,0002.61,0002.50
2024-01-27 09:05:00,SystemResetWarning,0836.6,5.00,000.00,020.0,018.8,000.0,028.4,021.3,12.8,0000.0,0002.86,0002.64,0002.53
2024-01-27 09:06:00,SystemResetWarning,0836.6,5.00,000.00,020.0,018.8,000.0,028.4,021.3,12.7,0000.0,0002.90,0002.68,0002.56
2024-01-27 09:07:00,SystemResetWarning,0836.6,5.00,000.00,020.0,018.8,000.0,028.4,021.3,12.6,0000.0,0002.92,0002.69,0002.57
2024-01-27 09:08:00,SystemResetWarning,0836.6,5.00,000.00,020.0,018.8,000.0,028.4,021.3,12.7,0000.0,0002.94,0002.71,0002.58
2024-01-27 09:09:00,SystemResetWarning,0836.6,4.99,000.00,020.0,018.8,000.0,028.4,021.3,12.9,0000.0,0002.94,0002.72,0002.59
2024-01-27 09:10:00,SystemResetWarning,0836.6,5.00,000.00,020.0,018.8,000.0,028.4,021.3,13.0,0000.0,0002.88,0002.71,0002.59
2024-01-27 09:11:00,SystemResetWarning,0836.6,5.00,000.00,020.0,018.7,000.0,028.3,021.3,12.9,0000.0,0002.84,0002.68,0002.58
2024-01-27 09:12:00,SystemResetWarning,0836.6,5.00,000.00,020.0,018.8,000.0,028.3,021.3,12.8,0000.0,0002.76,0002.63,0002.55
2024-01-27 09:13:00,SystemResetWarning,0836.6,5.00,000.00,019.9,018.8,000.0,028.3,021.3,12.7,0000.0,0002.75,0002.62,0002.53
2024-01-27 09:14:00,SystemResetWarning,0836.6,5.00,000.00,019.9,018.8,000.0,028.3,021.2,12.5,0000.0,0002.74,0002.61,0002.51
2024-01-27 09:15:00,SystemResetWarning,0836.6,5.00,000.00,019.9,018.8,000.0,028.3,021.2,12.2,0000.0,0002.77,0002.61,0002.50
2024-01-27 09:16:00,SystemResetWarning,0836.6,5.00,000.00,019.9,018.8,000.0,028.3,021.2,12.1,0000.0,0002.74,0002.59,0002.48
2024-01-27 09:17:00,SystemResetWarning,0836.6,4.99,000.00,019.9,018.8,000.0,028.3,021.2,12.0,0000.0,0002.68,0002.56,0002.46
2024-01-27 09:18:00,SystemResetWarning,0836.6,5.00,000.00,019.9,018.8,000.0,028.3,021.2,12.0,0000.0,0002.60,0002.52,0002.45
2024-01-27 09:19:00,SystemResetWarning,0836.6,5.00,000.00,019.9,018.8,000.0,028.3,021.2,11.8,0000.0,0002.59,0002.51,0002.44
2024-01-27 09:20:00,SystemResetWarning,0836.6,5.00,000.00,019.9,018.8,000.0,028.3,021.2,11.7,0000.0,0002.65,0002.53,0002.44
2024-01-27 09:21:00,SystemResetWarning,0836.6,5.00,000.00,019.9,018.8,000.0,028.3,021.2,11.8,0000.0,0002.68,0002.54,0002.44
2024-01-27 09:22:00,SystemResetWarning,0836.6,5.00,000.00,019.9,018.8,000.0,028.3,021.3,11.8,0000.0,0002.73,0002.56,0002.44
2024-01-27 09:23:00,SystemResetWarning,0836.6,5.00,000.00,019.9,018.8,000.0,028.3,021.3,12.2,0000.0,0002.82,0002.61,0002.47
2024-01-27 09:24:00,SystemResetWarning,0836.6,5.00,000.00,019.9,018.9,000.0,028.3,021.3,12.1,0000.0,0002.81,0002.61,0002.48
2024-01-27 09:25:00,SystemResetWarning,0836.6,5.00,000.00,019.9,018.8,000.0,028.3,021.2,12.1,0000.0,0002.82,0002.62,0002.50
2024-01-27 09:26:00,SystemResetWarning,0836.6,4.98,000.00,019.9,018.8,000.0,028.2,021.2,12.0,0000.0,0002.79,0002.61,0002.50
2024-01-27 09:27:00,SystemResetWarning,0836.6,5.00,000.00,019.9,018.8,000.0,028.2,021.2,12.0,0000.0,0002.78,0002.60,0002.49
2024-01-27 09:28:00,SystemResetWarning,0836.5,5.01,000.00,019.9,018.8,000.0,028.2,021.2,12.0,0000.0,0002.75,0002.58,0002.47
2024-01-27 09:29:00,SystemResetWarning,0836.5,5.01,000.00,019.9,018.8,000.0,028.2,021.2,12.1,0000.0,0002.75,0002.57,0002.46
2024-01-27 09:30:00,SystemResetWarning,0836.5,4.99,000.00,019.9,018.8,000.0,028.2,021.2,12.0,0000.0,0002.73,0002.55,0002.45
2024-01-27 09:31:00,SystemResetWarning,0836.5,4.98,000.00,019.9,018.8,000.0,028.2,021.2,11.9,0000.0,0002.64,0002.50,0002.43
2024-01-27 09:32:00,SystemResetWarning,0836.5,5.01,000.00,019.9,018.8,000.0,028.2,021.2,12.0,0000.0,0002.59,0002.48,0002.41
2024-01-27 09:33:00,SystemResetWarning,0836.5,5.01,000.00,019.9,018.8,000.0,028.2,021.2,11.9,0000.0,0002.54,0002.45,0002.39
2024-01-27 09:34:00,SystemResetWarning,0836.5,5.00,000.00,019.9,018.8,000.0,028.2,021.2,11.8,0000.0,0002.48,0002.42,0002.38
2024-01-27 09:35:00,SystemResetWarning,0836.5,4.99,000.00,019.9,018.8,000.0,028.2,021.2,11.7,0000.0,0002.50,0002.43,0002.38
2024-01-27 09:36:00,SystemResetWarning,0836.5,4.99,000.00,019.9,018.8,000.0,028.2,021.2,11.7,0000.0,0002.52,0002.43,0002.37
2024-01-27 09:37:00,SystemResetWarning,0836.5,5.01,000.00,019.9,018.8,000.0,028.2,021.2,11.7,0000.0,0002.51,0002.41,0002.35
2024-01-27 09:38:00,SystemResetWarning,0836.4,5.02,000.00,019.9,018.8,000.0,028.2,021.2,11.8,0000.0,0002.47,0002.38,0002.33
2024-01-27 09:39:00,SystemResetWarning,0836.4,5.00,000.00,019.9,018.8,000.0,028.2,021.2,12.0,0000.0,0002.46,0002.36,0002.30
2024-01-27 09:40:00,SystemResetWarning,0836.4,4.99,000.00,019.9,018.8,000.0,028.2,021.2,11.7,0000.0,0002.44,0002.33,0002.27
2024-01-27 09:41:00,SystemResetWarning,0836.4,4.99,000.00,019.9,018.8,000.0,028.2,021.2,11.6,0000.0,0002.42,0002.30,0002.22
2024-01-27 09:42:00,SystemResetWarning,0836.4,5.00,000.00,019.9,018.8,000.0,028.2,021.2,11.6,0000.0,0002.40,0002.27,0002.19
2024-01-27 09:43:00,SystemResetWarning,0836.4,5.00,000.00,019.9,018.8,000.0,028.2,021.2,11.6,0000.0,0002.39,0002.24,0002.16
2024-01-27 09:44:00,SystemResetWarning,0836.4,5.00,000.00,019.9,018.8,000.0,028.2,021.2,11.7,0000.0,0002.38,0002.21,0002.11
2024-01-27 09:45:00,SystemResetWarning,0836.3,5.01,000.00,019.9,018.8,000.0,028.2,021.2,11.6,0000.0,0002.31,0002.15,0002.06
2024-01-27 09:46:00,SystemResetWarning,0836.3,5.01,000.00,019.9,018.8,000.0,028.2,021.2,11.6,0000.0,0002.22,0002.07,0001.99
2024-01-27 09:47:00,SystemResetWarning,0836.2,5.00,000.00,019.9,018.8,000.0,028.2,021.2,11.7,0000.0,0002.13,0002.01,0001.93
2024-01-27 09:48:00,SystemResetWarning,0836.2,5.00,000.00,019.9,018.8,000.0,028.2,021.2,11.7,0000.0,0002.08,0001.97,0001.91
2024-01-27 09:49:00,SystemResetWarning,0836.3,4.99,000.00,019.8,018.8,000.0,028.2,021.2,11.5,0000.0,0002.06,0001.96,0001.89
2024-01-27 09:50:00,SystemResetWarning,0836.2,4.99,000.00,019.8,018.8,000.0,028.2,021.1,11.7,0000.0,0002.01,0001.92,0001.87
2024-01-27 09:51:00,SystemResetWarning,0836.3,5.00,000.00,019.8,018.8,000.0,028.2,021.1,12.0,0000.0,0001.99,0001.91,0001.86
2024-01-27 09:52:00,SystemResetWarning,0836.2,5.01,000.00,019.8,018.7,000.0,028.2,021.1,12.0,0000.0,0001.97,0001.91,0001.86
2024-01-27 09:53:00,SystemResetWarning,0836.3,5.00,000.00,019.8,018.7,000.0,028.2,021.1,11.7,0000.0,0001.94,0001.91,0001.87
2024-01-27 09:54:00,SystemResetWarning,0836.3,5.00,000.00,019.8,018.7,000.0,028.2,021.1,11.6,0000.0,0001.93,0001.91,0001.88
2024-01-27 09:55:00,SystemResetWarning,0836.2,4.99,000.00,019.8,018.7,000.0,028.2,021.1,11.5,0000.0,0001.90,0001.90,0001.88
2024-01-27 09:56:00,SystemResetWarning,0836.2,4.99,000.00,019.8,018.7,000.0,028.1,021.1,11.4,0000.0,0001.90,0001.91,0001.89
2024-01-27 09:57:00,SystemResetWarning,0836.2,5.00,000.00,019.8,018.7,000.0,028.1,021.1,11.4,0000.0,0001.94,0001.95,0001.92
2024-01-27 09:58:00,SystemResetWarning,0836.2,5.00,000.00,019.8,018.8,000.0,028.1,021.1,11.4,0000.0,0001.96,0001.95,0001.92
2024-01-27 09:59:00,SystemResetWarning,0836.2,5.00,000.00,019.8,018.8,000.0,028.1,021.1,11.5,0000.0,0001.97,0001.94,0001.91
